EN

Hourly Weather Kysivka

Today, 26 July, Monday

Time Temperature Precipitation Wind Pressure Humidity
00:00 +20°C° 0 mm 3 mps 751 mmHg 52%
01:00 +19°C° 0 mm 3 mps 751 mmHg 55%
02:00 +19°C° 0 mm 3 mps 751 mmHg 58%
03:00 +18°C° 0 mm 3 mps 751 mmHg 60%
04:00 +18°C° 0 mm 3 mps 751 mmHg 63%
05:00 +18°C° 0 mm 3 mps 752 mmHg 66%
06:00 +21°C° 0 mm 3 mps 752 mmHg 59%
07:00 +24°C° 0 mm 3 mps 752 mmHg 51%
08:00 +26°C° 0 mm 4 mps 752 mmHg 44%
09:00 +28°C° 0 mm 3 mps 752 mmHg 40%
10:00 +29°C° 0 mm 3 mps 752 mmHg 36%
11:00 +31°C° 0 mm 3 mps 752 mmHg 32%
12:00 +31°C° 0 mm 3 mps 751 mmHg 30%
13:00 +32°C° 0 mm 2 mps 751 mmHg 29%
14:00 +32°C° 0 mm 2 mps 751 mmHg 27%
15:00 +32°C° 0 mm 2 mps 751 mmHg 29%
16:00 +31°C° 0 mm 2 mps 750 mmHg 30%
17:00 +31°C° 0 mm 2 mps 750 mmHg 31%
18:00 +29°C° 0 mm 3 mps 751 mmHg 34%
19:00 +28°C° 0 mm 3 mps 751 mmHg 36%
20:00 +27°C° 0 mm 4 mps 751 mmHg 38%
21:00 +26°C° 0 mm 4 mps 751 mmHg 41%
22:00 +25°C° 0 mm 4 mps 751 mmHg 44%
23:00 +23°C° 0 mm 4 mps 752 mmHg 47%

Tomorrow, 27 July, Tuesday

Time Temperature Precipitation Wind Pressure Humidity
00:00 +22°C° 0 mm 4 mps 752 mmHg 49%
01:00 +22°C° 0 mm 3 mps 751 mmHg 51%
02:00 +21°C° 0 mm 3 mps 751 mmHg 53%
03:00 +20°C° 0 mm 3 mps 752 mmHg 54%
04:00 +20°C° 0 mm 3 mps 752 mmHg 55%
05:00 +20°C° 0 mm 3 mps 752 mmHg 57%
06:00 +22°C° 0 mm 3 mps 752 mmHg 51%
07:00 +25°C° 0 mm 3 mps 752 mmHg 45%
08:00 +27°C° 0 mm 3 mps 752 mmHg 39%
09:00 +29°C° 0 mm 3 mps 751 mmHg 36%
10:00 +30°C° 0 mm 3 mps 751 mmHg 33%
11:00 +32°C° 0 mm 2 mps 751 mmHg 30%
12:00 +32°C° 0 mm 2 mps 751 mmHg 28%
13:00 +33°C° 0 mm 1 mps 751 mmHg 27%
14:00 +33°C° 0 mm 1 mps 750 mmHg 25%
15:00 +33°C° 0 mm 1 mps 750 mmHg 26%
16:00 +32°C° 0 mm 1 mps 750 mmHg 27%
17:00 +32°C° 0 mm 1 mps 750 mmHg 29%
18:00 +30°C° 0 mm 2 mps 750 mmHg 32%
19:00 +28°C° 0 mm 2 mps 750 mmHg 35%
20:00 +26°C° 0 mm 2 mps 750 mmHg 39%
21:00 +25°C° 0 mm 2 mps 750 mmHg 43%
22:00 +24°C° 0 mm 2 mps 750 mmHg 46%
23:00 +24°C° 0 mm 3 mps 750 mmHg 50%

Day after tomorrow, 28 July, Wednesday

Time Temperature Precipitation Wind Pressure Humidity
00:00 +22°C° 0 mm 3 mps 750 mmHg 53%
01:00 +22°C° 0 mm 3 mps 749 mmHg 56%
02:00 +21°C° 0 mm 3 mps 749 mmHg 59%
03:00 +21°C° 0 mm 3 mps 749 mmHg 60%
04:00 +21°C° 0 mm 3 mps 749 mmHg 62%
05:00 +21°C° 0 mm 3 mps 749 mmHg 63%
06:00 +24°C° 0 mm 3 mps 749 mmHg 59%
07:00 +26°C° 0 mm 4 mps 749 mmHg 55%
08:00 +28°C° 0 mm 4 mps 749 mmHg 51%
09:00 +28°C° 0 mm 4 mps 748 mmHg 49%
10:00 +29°C° 0 mm 4 mps 748 mmHg 47%
11:00 +30°C° 0 mm 4 mps 748 mmHg 46%
12:00 +29°C° 0 mm 4 mps 748 mmHg 50%
13:00 +28°C° 0 mm 3 mps 748 mmHg 53%
14:00 +27°C° 0 mm 3 mps 748 mmHg 57%
15:00 +28°C° 0 mm 3 mps 747 mmHg 54%
16:00 +29°C° 0 mm 4 mps 747 mmHg 52%
17:00 +29°C° 0 mm 4 mps 746 mmHg 49%
18:00 +27°C° 0.2 mm 4 mps 746 mmHg 57%
19:00 +25°C° 0.2 mm 3 mps 746 mmHg 65%
20:00 +22°C° 0.2 mm 3 mps 746 mmHg 74%
21:00 +21°C° 0.5 mm 2 mps 746 mmHg 78%
22:00 +21°C° 0.5 mm 2 mps 746 mmHg 82%
23:00 +20°C° 0.5 mm 2 mps 746 mmHg 86%

29 July, Thursday

Time Temperature Precipitation Wind Pressure Humidity
00:00 +20°C° 0 mm 2 mps 745 mmHg 87%
01:00 +19°C° 0 mm 2 mps 745 mmHg 87%
02:00 +19°C° 0 mm 2 mps 745 mmHg 88%
03:00 +19°C° 0 mm 2 mps 745 mmHg 89%
04:00 +20°C° 0 mm 1 mps 745 mmHg 89%
05:00 +20°C° 0 mm 1 mps 746 mmHg 89%
06:00 +22°C° 0 mm 1 mps 746 mmHg 81%
07:00 +24°C° 0 mm 1 mps 746 mmHg 74%
08:00 +26°C° 0 mm 1 mps 746 mmHg 66%
09:00 +28°C° 0 mm 1 mps 746 mmHg 58%
10:00 +30°C° 0 mm 1 mps 746 mmHg 51%
11:00 +32°C° 0 mm 2 mps 746 mmHg 44%
12:00 +32°C° 0 mm 2 mps 745 mmHg 41%
13:00 +34°C° 0 mm 2 mps 745 mmHg 37%
14:00 +35°C° 0 mm 3 mps 745 mmHg 34%
15:00 +35°C° 0 mm 3 mps 745 mmHg 34%
16:00 +34°C° 0 mm 3 mps 745 mmHg 34%
17:00 +34°C° 0 mm 3 mps 744 mmHg 34%
18:00 +31°C° 0 mm 3 mps 744 mmHg 40%
19:00 +29°C° 0 mm 3 mps 744 mmHg 46%
20:00 +27°C° 0 mm 2 mps 744 mmHg 51%
21:00 +26°C° 0 mm 2 mps 745 mmHg 53%
22:00 +26°C° 0 mm 2 mps 745 mmHg 54%
23:00 +25°C° 0 mm 3 mps 745 mmHg 55%

30 July, Friday

Time Temperature Precipitation Wind Pressure Humidity
00:00 +25°C° 0 mm 3 mps 745 mmHg 57%
01:00 +24°C° 0 mm 3 mps 744 mmHg 59%
02:00 +24°C° 0 mm 3 mps 744 mmHg 61%
03:00 +23°C° 0.1 mm 2 mps 744 mmHg 64%
04:00 +23°C° 0.1 mm 2 mps 744 mmHg 67%
05:00 +23°C° 0.1 mm 2 mps 744 mmHg 70%
06:00 +25°C° 0.1 mm 2 mps 744 mmHg 64%
07:00 +27°C° 0.1 mm 2 mps 744 mmHg 58%
08:00 +29°C° 0.1 mm 2 mps 744 mmHg 52%
09:00 +31°C° 0 mm 3 mps 744 mmHg 47%
10:00 +33°C° 0 mm 3 mps 744 mmHg 42%
11:00 +35°C° 0 mm 3 mps 744 mmHg 38%
12:00 +35°C° 0 mm 4 mps 744 mmHg 37%
13:00 +36°C° 0 mm 4 mps 744 mmHg 36%
14:00 +36°C° 0 mm 4 mps 743 mmHg 34%
15:00 +35°C° 0 mm 4 mps 743 mmHg 38%
16:00 +34°C° 0 mm 3 mps 743 mmHg 42%
17:00 +31°C° 0 mm 3 mps 743 mmHg 46%
18:00 +30°C° 0.4 mm 2 mps 743 mmHg 53%
19:00 +28°C° 0.4 mm 2 mps 743 mmHg 61%
20:00 +26°C° 0.4 mm 1 mps 743 mmHg 68%
21:00 +25°C° 0.2 mm 1 mps 743 mmHg 71%
22:00 +25°C° 0.2 mm 1 mps 743 mmHg 74%
23:00 +24°C° 0.2 mm 1 mps 743 mmHg 77%

31 July, Saturday

Time Temperature Precipitation Wind Pressure Humidity
00:00 +23°C° 0 mm 1 mps 743 mmHg 79%
01:00 +23°C° 0 mm 2 mps 743 mmHg 81%
02:00 +23°C° 0 mm 2 mps 743 mmHg 83%
03:00 +23°C° 0 mm 2 mps 743 mmHg 83%
04:00 +23°C° 0 mm 2 mps 743 mmHg 84%
05:00 +23°C° 0 mm 2 mps 743 mmHg 84%
06:00 +25°C° 0 mm 2 mps 743 mmHg 76%
07:00 +27°C° 0 mm 2 mps 743 mmHg 68%
08:00 +29°C° 0 mm 3 mps 744 mmHg 60%
09:00 +30°C° 0 mm 3 mps 743 mmHg 53%
10:00 +33°C° 0 mm 3 mps 743 mmHg 46%
11:00 +34°C° 0 mm 4 mps 743 mmHg 39%
12:00 +35°C° 0 mm 4 mps 743 mmHg 36%
13:00 +36°C° 0 mm 4 mps 743 mmHg 32%
14:00 +36°C° 0 mm 4 mps 743 mmHg 29%
15:00 +36°C° 0 mm 3 mps 742 mmHg 29%
16:00 +36°C° 0 mm 3 mps 742 mmHg 29%
17:00 +36°C° 0 mm 3 mps 742 mmHg 30%
18:00 +34°C° 0 mm 3 mps 742 mmHg 37%
19:00 +30°C° 0 mm 3 mps 742 mmHg 44%
20:00 +28°C° 0 mm 3 mps 742 mmHg 51%
21:00 +25°C° 1.4 mm 3 mps 742 mmHg 64%
22:00 +22°C° 1.4 mm 3 mps 743 mmHg 77%
23:00 +20°C° 1.4 mm 2 mps 744 mmHg 91%
Show more